Jaap Van Rijn

Jaap Van Rijn

Statistiques 2026

  • Courses courues : 96
  • Nb de victoires : 24
  • Nb de places : 52
  • Écart gagnant : 8
  • Réussite à la gagne : 25%
  • Réussite à la place : 54%
Musique : 0a 4a 4a 8a 5a 0a 0a 7a 1a Da 3a 2a 1a Da 1a 3a 3a Da
DateRangCatégorieAlloc.Dist.HippodromeChevalRed. KmSpé.
12/12/25 D Trot 3 300€ 2 100m Hol-Wolvega Pantani Starlake Attelé
12/12/25 5 Trot 2 200€ 2 100m Hol-Wolvega Max Ter Sype 1'14"6 Attelé
04/10/25 7 Trot 11 280€ 2 100m Hol-Wolvega Nirvana Fashion 1'15"3 Attelé
20/12/25 3 Trot 3 300€ 2 100m Hol-Wolvega Money Maker Br 1'16"1 Attelé
20/12/25 6 Trot 3 300€ 2 100m Hol-Wolvega Popping Renka 1'16"0 Attelé
20/12/25 7 Trot 18 700€ 2 100m Hol-Wolvega Rover Hazelaar 1'18"8 Attelé
20/12/25 2 Trot 18 700€ 2 100m Hol-Wolvega Riverside Diamond 1'15"6 Attelé
31/12/25 1 Trot 2 200€ 2 100m Hol-Wolvega Pam Beuckenswijk 1'16"8 Attelé
31/12/25 1 Trot 2 200€ 2 100m Hol-Wolvega Fabiofelix Font 1'14"5 Attelé
31/12/25 1 Trot 5 000€ 2 100m Hol-Wolvega Lincoln Renka 1'14"8 Attelé
31/12/25 2 Trot 4 400€ 2 100m Hol-Wolvega Olympus Lobell Attelé
05/01/26 5 Trot 41 000€ 2 100m Vincennes Modric Renka 1'12"0 Attelé lire

Longtemps au sein du peloton, en troisième épaisseur le nez au vent, est venu faire illusion à la distance, ne plafonnant que pour finir.

11/01/26 6 Trot 40 000€ 2 100m Vincennes Mareno Bello 1'13"7 Attelé
24/01/26 2 Trot 3 300€ 2 100m Hol-Wolvega Marshall V.S. 1'16"0 Attelé
24/01/26 D Trot 4 400€ 2 100m Hol-Wolvega Liberto Attelé
24/01/26 1 Trot 3 300€ 2 100m Hol-Wolvega Oakley Vrijthout 1'15"3 Attelé
24/01/26 D Trot 2 200€ 2 100m Hol-Wolvega Otto Beuckenswijk Attelé
24/01/26 2 Trot 2 200€ 2 100m Hol-Wolvega Jacky Barosso 1'16"0 Attelé
07/02/26 1 Trot 40 000€ 2 100m Vincennes Marley 1'13"0 Attelé
07/02/26 0 Trot 46 000€ 2 100m Vincennes King Moko Attelé
14/02/26 3 Trot 4 400€ 2 100m Hol-Wolvega Petrolwiets 1'15"3 Attelé
21/02/26 6 Trot 5 500€ 2 120m Hol-Wolvega Karina Charisma 1'17"1 Attelé
21/02/26 4 Trot 4 400€ 2 100m Hol-Wolvega Nirvana Fashion 1'15"9 Attelé
21/02/26 D Trot 4 400€ 2 100m Hol-Wolvega Obvious Gold Attelé
21/02/26 D Trot 2 200€ 2 100m Hol-Wolvega Proud Beuckenswijk Attelé
21/02/26 2 Trot 2 200€ 2 100m Hol-Wolvega Jacky Barosso 1'16"7 Attelé
21/02/26 1 Trot 3 300€ 2 100m Hol-Wolvega Utkieker 1'13"4 Attelé
28/02/26 3 Trot 3 300€ 2 100m Hol-Wolvega Petrolwiets 1'14"8 Attelé
28/02/26 1 Trot 2 200€ 2 100m Hol-Wolvega Obvious Gold 1'14"9 Attelé
13/03/26 4 Trot 5 000€ 2 100m Hol-Wolvega Hilaria de Duffel Attelé
13/03/26 2 Trot 2 200€ 2 100m Hol-Wolvega Majestik de Busset Attelé
21/03/26 1 Trot 4 400€ 2 100m Hol-Wolvega Jacky Barosso 1'13"8 Attelé
27/03/26 1 Trot 6 600€ 2 100m Hol-Wolvega Corsa's Titan Attelé
27/03/26 0 Trot 3 300€ 2 100m Hol-Wolvega Panzano Attelé
27/03/26 0 Trot 2 200€ 2 100m Hol-Wolvega Oakley Vrijthout Attelé
03/04/26 5 Trot 7 700€ 2 100m Hol-Wolvega Liberto 1'14"7 Attelé
03/04/26 6 Trot 5 000€ 2 100m Hol-Wolvega Lynx du Nord 1'16"3 Attelé
03/04/26 1 Trot 2 200€ 2 100m Hol-Wolvega Roller Coaster 1'14"4 Attelé
10/04/26 2 Trot 2 200€ 2 100m Hol-Wolvega Pippa Lobell 1'13"8 Attelé
10/04/26 2 Trot 6 600€ 2 100m Hol-Wolvega Oakley Vrijthout 1'15"5 Attelé
22/04/26 1 Trot 4 400€ 2 100m Hol-Wolvega Marshall V.S. 1'13"4 Attelé
22/04/26 7 Trot 2 200€ 2 100m Hol-Wolvega Phantom Meadow 1'17"6 Attelé
20/07/22 1 Trot 1 050€ 2 080m HOL-EMMELOORD Johnny B Goode 1'20"4 Attelé
21/06/23 D Trot 1 000€ 2 080m HOL-EMMELOORD Kodex Attelé
21/06/23 5 Trot 1 000€ 2 080m HOL-EMMELOORD Mike Kite 1'23"3 Attelé
21/06/23 4 Trot 1 100€ 2 105m HOL-EMMELOORD Maja Beuckenswijk 1'20"6 Attelé
19/07/23 3 Trot 1 000€ 2 080m HOL-EMMELOORD Jarhead 1'27"5 Attelé
19/07/23 1 Trot 1 000€ 2 080m HOL-EMMELOORD Kodex 1'22"3 Attelé
19/07/23 1 Trot 1 000€ 2 080m HOL-EMMELOORD Maintiendrez Amis 1'21"4 Attelé
19/07/23 D Trot 1 100€ 2 080m HOL-EMMELOORD Wild Nature Attelé